CZ-6A DEB, 55875

Orbit data source: Space-Track

CZ-6A DEB, 55875 is space debris in SSO originally from a launch on Fri, 11 Nov 2022 UTC launched from the Taiyaun Space Center, China (TSC). Debris objects in space refer to the collection of defunct objects orbiting the Earth. Examples of debris include non-operational satellites, rocket bodies, and fragments generated from explosions, collisions, or faulty payload assembly.

Loading next visibility...
Identifier
55875, 2022-151ZX
Orbit
SSO
Country
Flag of CNCN / PRC
Related business
Manufacturer
SAST
Mission
Spacecraft
Bus & Motor
Unknown
Mass
Unknown
Launch date (UTC)
2022-11-11 (4 years ago)
Launch vehicle
Unknown
Launch site
Taiyaun Space Center, China (TSC)
Object type
Payload
Rocket body
Debris
Shape & HBR
Unknown shape, 0.1 m
Radar Cross Section
Small (<0.1 m²)

Expand to show TLE details & history
Last TLE update: 10 hours ago

TLE from 10 hours ago
0 CZ-6A DEB
1 55875U 22151ZX  26207.45453796  .00002484  00000-0  11777-2 0  9994
2 55875  98.8219 216.3973 0040948 198.9356 161.0299 14.20052454179064
Epoch: 2026-07-26T10:54Z
TLE epoch observation values (Epoch: 2026-07-26T10:54:32.079Z)
Latitude
-0.00009°
Longitude
108.61142°
Altitude
855.999 km
Speed
7.41 km/s
True Right ascension
14h 25m 35s
True Declination
0° 00' 00"
Sunlit
Object was in daylight at epoch
Visualization orbit readout
Latitude
Unknown
Longitude
Unknown
Altitude
Unknown
Speed
Unknown
Apparent Right ascension
Unknown
Apparent Declination
Unknown
Sunlit
N/A
Visualization observer readout
Local Sidereal Time
10:41:17
Azimuth
Unknown
Elevation
Unknown
Doppler factor
Unknown
Orbital elements
Apogee altitude
851.824 km
Perigee altitude
792.855 km
Semi-major axis
7,200.476 km
Eccentricity
0.00409
Inclination
98.8219°
RAAN
216.3973°
Arg. of periapsis
198.9356°
True anomaly
161.1817°
Mean anomaly
161.0299°
Eccentric anomaly
161.10587°
Mean motion
3.55223 °/min
Orbital period
101.34 mins
BSTAR
0.0011777
Loading maneuver chart data...
Computing Atmospheric mass density...
Loading historical data...
Loading historical data...
Loading historical data...
Loading historical data...
Loading historical data...
Loading historical data...
Loading historical data...

Documentation

Showing up to 5 results
|